Date,TemperatureHighF,TemperatureAvgF,TemperatureLowF,DewpointHighF,DewpointAvgF,DewpointLowF,HumidityHigh,HumidityAvg,HumidityLow,PressureMaxIn,PressureMinIn,WindSpeedMaxMPH,WindSpeedAvgMPH,GustSpeedMaxMPH,PrecipitationSumIn
2013-1-1,19.4,5.7,-6.5,12.8,-5.4,-17.1,75,59,45,30.04,29.80,4,1,6,0.00
2013-1-2,21.2,18.4,15.8,15.6,10.1,6.4,79,70,57,29.85,29.73,4,2,6,0.00
2013-1-3,21.2,14.7,11.1,15.2,4.6,-1.7,77,64,48,30.03,29.85,6,4,9,0.00
2013-1-4,34.5,22.1,13.5,15.6,10.3,5.6,73,60,44,29.91,29.77,6,2,9,0.00
2013-1-5,28.9,18.1,11.5,13.1,8.0,4.2,75,65,44,29.87,29.64,5,2,8,0.00
2013-1-6,25.7,17.7,10.9,10.4,5.8,0.2,73,60,43,30.00,29.00,4,2,8,0.00
2013-1-7,41.9,29.7,17.1,24.8,18.7,7.4,72,64,49,29.79,28.87,6,2,11,0.00
2013-1-8,36.5,28.1,17.6,26.2,20.0,10.2,82,71,56,29.76,28.75,7,3,12,0.00
2013-1-9,35.6,30.7,24.8,25.2,19.2,14.4,75,62,48,30.13,29.67,14,5,21,0.01
2013-1-10,43.2,34.4,27.1,30.5,22.7,15.9,87,63,43,30.09,29.53,9,4,13,0.19
2013-1-11,41.2,37.3,34.0,39.6,35.1,30.5,95,92,87,29.53,29.15,6,2,14,0.01
2013-1-12,39.2,16.2,4.6,37.9,5.2,-7.9,95,62,49,29.86,29.16,13,3,14,0.00
2013-1-13,8.2,4.9,1.2,-4.5,-7.1,-11.1,61,56,53,30.01,29.82,7,3,8,0.00
2013-1-14,14.2,8.2,3.9,0.0,-4.1,-7.0,66,57,45,30.18,30.00,7,2,8,0.00
2013-1-15,32.5,20.2,7.9,13.9,7.1,-1.8,74,57,34,30.04,29.60,6,2,8,0.00
2013-1-16,37.0,27.4,15.8,29.3,13.9,-11.4,85,59,26,29.95,29.43,8,4,11,0.01
2013-1-17,19.9,12.8,7.3,3.7,-6.2,-17.2,59,42,27,30.17,30.02,6,2,8,0.00
2013-1-18,44.1,28.9,16.7,29.6,19.0,3.7,81,66,53,30.06,29.50,8,3,11,0.01
2013-1-19,38.8,22.7,1.8,29.2,11.8,-13.7,86,64,40,29.99,29.45,15,6,21,0.00
2013-1-20,8.8,2.1,-2.7,-9.2,-14.8,-20.4,51,44,34,30.18,29.99,9,5,12,0.00
2013-1-21,-2.7,-7.0,-11.4,-19.5,-25.8,-32.6,47,38,30,30.11,30.03,8,5,14,0.00
2013-1-22,4.5,-4.3,-13.0,-11.6,-23.0,-29.3,46,39,28,30.16,30.00,5,3,8,0.00
2013-1-23,16.9,6.1,-6.0,2.4,-12.2,-29.0,64,43,25,30.38,29.92,11,4,19,0.00
2013-1-24,11.1,0.9,-8.0,-4.6,-18.5,-30.1,48,38,31,30.44,29.93,10,4,12,0.00
2013-1-25,18.7,13.3,3.7,4.6,-2.2,-10.7,61,49,40,30.09,29.71,10,5,17,0.00
2013-1-26,24.1,12.2,-1.1,7.3,-3.3,-14.5,59,49,38,30.12,29.90,7,3,11,0.00
2013-1-27,33.1,28.7,23.2,27.6,18.7,7.0,87,67,48,29.90,29.59,7,3,11,0.08
2013-1-28,35.2,31.8,29.1,31.1,28.3,25.8,89,87,83,29.68,29.42,8,2,9,0.07
2013-1-29,37.6,32.2,27.3,30.4,26.6,17.3,89,80,66,29.55,29.30,6,3,11,0.02
2013-1-30,27.3,17.4,7.9,17.5,5.8,-5.6,69,60,52,29.54,29.43,10,6,14,0.00
2013-1-31,7.9,1.4,-8.1,-5.6,-13.3,-26.7,58,49,38,30.03,29.54,9,6,14,0.00
2013-2-1,6.6,-3.9,-12.8,-9.0,-20.8,-28.1,60,44,26,30.08,29.83,6,3,8,0.00
2013-2-2,14.0,6.3,-0.9,-1.0,-7.6,-13.1,62,52,36,29.95,29.74,3,1,5,0.00
2013-2-3,16.2,10.1,3.0,0.9,-2.7,-7.8,64,56,42,29.86,29.75,6,3,8,0.00
2013-2-4,16.9,10.4,1.2,5.6,-4.7,-11.9,69,51,35,29.85,29.52,4,1,7,0.00
2013-2-5,34.2,21.6,7.9,20.3,10.6,-2.2,79,63,42,29.85,29.42,6,2,10,0.00
2013-2-6,25.5,16.3,5.4,17.8,7.6,-3.4,73,68,62,29.88,29.72,6,2,10,0.00
2013-2-7,28.2,25.5,23.5,19.9,17.7,15.9,81,72,62,30.03,29.77,5,2,8,0.00
2013-2-8,29.5,21.4,9.5,16.6,9.2,0.8,72,59,43,30.16,29.99,7,3,11,0.00
2013-2-9,32.4,28.7,23.2,25.9,21.8,15.2,85,75,69,30.00,29.71,6,4,12,0.00
2013-2-10,33.4,30.3,27.1,29.5,25.6,20.8,89,83,75,29.72,29.07,10,3,14,0.00
2013-2-11,30.0,25.3,17.2,27.2,16.5,7.0,89,69,56,29.81,29.12,7,2,11,0.26
2013-2-12,39.4,25.1,13.5,21.1,13.6,4.9,73,62,45,29.81,29.57,9,3,10,0.02
2013-2-13,47.1,30.2,20.3,29.0,21.1,12.1,86,69,44,29.58,29.35,5,2,7,0.09
2013-2-14,33.3,26.3,13.6,28.9,13.5,-5.5,88,62,25,29.95,29.37,4,0,6,0.04
2013-2-15,23.5,12.0,4.1,-0.9,-5.3,-8.7,56,46,29,30.07,29.94,8,4,11,0.00
2013-2-16,25.7,10.1,0.7,4.2,-4.5,-11.6,62,52,32,30.03,29.88,3,1,6,0.00
2013-2-17,32.7,21.4,6.8,17.4,8.4,-4.7,64,57,46,29.89,29.42,9,5,14,0.00
2013-2-18,33.3,23.6,9.1,27.2,13.3,-4.8,78,64,52,29.58,29.29,10,5,14,0.00
2013-2-19,12.6,6.0,0.9,-4.8,-11.8,-17.0,56,43,31,30.13,29.58,11,7,16,0.00
2013-2-20,23.0,6.9,-6.2,-3.7,-10.8,-19.2,55,44,26,30.23,30.12,4,2,6,0.00
2013-2-21,25.0,14.7,1.0,11.0,-0.3,-12.3,63,51,37,30.22,29.88,6,2,10,0.00
2013-2-22,36.9,24.3,19.8,21.0,15.6,11.0,78,69,52,29.89,29.64,4,1,5,0.00
2013-2-23,38.1,25.6,17.2,24.1,16.4,9.7,79,68,51,29.73,29.61,4,1,5,0.01
2013-2-24,42.1,24.7,9.3,21.9,12.7,1.0,75,61,43,29.88,29.73,4,1,5,0.04
2013-2-25,45.7,29.1,18.3,23.3,17.0,9.9,76,61,41,29.88,29.81,4,1,7,0.00
2013-2-26,42.1,27.2,14.9,26.5,17.8,8.3,78,68,53,29.84,29.66,6,2,10,0.00
2013-2-27,42.8,32.4,27.0,24.6,21.2,16.4,72,64,45,29.81,29.66,8,4,11,0.00
2013-2-28,30.7,28.5,23.5,19.7,16.7,10.5,67,61,52,30.00,29.80,5,3,8,0.00
2013-3-1,36.0,25.3,15.3,15.3,10.7,4.1,62,54,42,30.14,30.00,5,3,8,0.00
2013-3-2,37.9,21.4,5.9,10.5,2.7,-2.9,70,47,22,30.13,29.94,4,1,8,0.00
2013-3-3,36.7,26.1,16.0,6.8,2.2,-3.1,55,37,22,29.95,29.77,8,4,15,0.00
2013-3-4,27.1,24.9,22.8,18.5,11.4,-2.5,79,58,27,29.82,29.73,8,5,14,0.00
2013-3-5,33.1,26.0,19.9,23.7,18.8,13.0,80,74,62,30.08,29.76,4,3,8,0.01
2013-3-6,34.7,23.9,15.6,16.4,12.5,5.2,75,62,45,30.19,30.08,4,2,8,0.01
2013-3-7,37.9,27.0,6.6,16.9,11.2,-2.4,71,51,37,30.17,30.06,8,3,11,0.00
2013-3-8,43.5,31.6,19.8,27.4,20.3,11.3,75,63,48,30.10,29.85,7,3,11,0.04
2013-3-9,37.0,35.2,32.9,33.3,30.6,24.2,87,83,63,29.85,29.47,7,3,12,0.32
2013-3-10,34.9,33.1,29.5,31.2,26.3,21.6,88,76,69,29.73,29.55,8,4,14,0.01
2013-3-11,32.5,27.9,22.6,21.6,18.2,13.0,72,66,58,29.64,29.52,6,4,12,0.00
2013-3-12,31.3,25.1,20.5,15.1,10.4,3.5,70,54,34,29.95,29.59,10,5,16,0.00
2013-3-13,38.1,23.8,11.5,24.0,7.1,2.2,70,50,24,30.17,29.43,6,3,9,0.39
2013-3-14,48.2,32.8,23.5,27.2,20.6,11.6,80,61,43,29.77,29.54,6,2,8,0.04
2013-3-15,35.2,31.0,23.2,28.8,24.1,17.1,84,75,68,29.54,29.36,5,2,11,0.11
2013-3-16,30.2,21.6,12.2,17.1,7.3,-4.1,77,55,37,29.77,29.42,8,4,12,0.00
2013-3-17,30.4,17.8,3.2,11.8,-2.0,-10.7,54,41,28,29.80,29.42,11,4,15,0.00
2013-3-18,28.8,22.1,12.6,25.1,11.6,-0.1,86,64,51,29.42,29.12,14,8,19,0.00
2013-3-19,25.7,14.4,5.7,1.1,-4.9,-14.1,57,42,26,29.71,29.33,11,7,17,0.00
2013-3-20,24.8,13.9,5.2,-1.4,-7.5,-14.3,47,37,28,29.73,29.64,10,6,16,0.00
2013-3-21,34.9,17.6,1.0,5.0,-2.5,-12.7,57,42,26,29.65,29.57,5,2,9,0.00
2013-3-22,43.9,24.6,7.0,99.9,4.9,-4.8,66,44,10,29.63,29.57,5,1,6,0.00
2013-3-23,43.9,29.0,15.6,16.3,11.0,4.0,67,48,25,29.93,29.59,2,1,6,0.14
2013-3-24,31.6,28.4,27.3,17.8,16.4,14.1,64,60,54,29.93,29.85,2,0,6,0.14
2013-3-25,44.6,35.1,21.2,18.2,14.8,9.6,62,44,29,29.99,29.88,4,2,14,0.00
2013-3-26,44.2,33.1,26.6,22.3,17.3,14.1,62,52,36,30.07,29.98,3,1,9,0.00
2013-3-27,50.5,35.9,22.8,21.5,14.3,10.1,65,43,23,30.11,30.06,3,1,8,0.00
2013-3-28,52.0,35.8,20.7,22.0,16.0,11.8,72,47,23,30.12,30.05,4,1,8,0.00
2013-3-29,53.6,38.5,27.5,33.9,26.1,16.1,75,61,41,30.06,29.85,4,1,12,0.00
2013-3-30,57.2,42.8,0.0,99.9,37.2,23.7,91,71,10,30.18,29.65,5,2,10,0.33
2013-3-31,40.8,34.6,24.3,30.1,18.8,2.4,83,56,24,30.12,29.83,9,4,16,0.00
2013-4-1,37.9,26.5,17.2,23.7,7.8,3.7,59,46,27,30.30,29.57,6,3,14,0.86
2013-4-2,40.5,28.7,18.1,14.6,9.0,1.8,68,46,22,30.03,29.91,5,2,11,0.00
2013-4-3,49.5,35.9,18.5,29.1,16.9,7.0,68,48,24,30.07,29.71,6,2,15,0.00
2013-4-4,52.7,43.9,33.3,32.8,25.3,18.8,74,49,29,29.84,29.66,6,3,14,0.00
2013-4-5,44.1,34.4,24.1,29.6,19.7,11.4,83,58,28,29.92,29.59,6,2,13,0.01
2013-4-6,52.5,39.1,0.0,99.9,30.5,21.6,84,66,10,30.61,29.20,8,3,16,0.06
2013-4-7,50.4,40.9,36.1,36.2,31.4,27.3,85,69,50,30.14,29.94,4,2,11,0.11
2013-4-8,45.3,41.0,38.8,39.8,37.3,34.2,92,87,79,30.26,29.88,3,1,7,0.43
2013-4-9,46.8,38.4,33.6,34.6,28.5,19.5,84,68,50,30.38,30.18,5,2,12,0.05
2013-4-10,40.5,35.3,29.8,26.6,23.0,19.3,85,62,45,30.40,30.12,5,2,13,0.07
2013-4-11,36.0,33.3,0.0,29.8,25.7,16.9,86,72,46,30.12,29.90,5,2,11,0.08
2013-4-12,39.2,31.5,0.0,99.9,26.5,21.6,79,65,10,30.57,29.91,4,1,8,0.11
2013-4-13,38.7,31.9,26.8,26.1,21.8,15.9,85,67,52,30.12,29.98,4,1,8,0.13
2013-4-14,36.1,31.4,26.8,32.1,24.7,17.7,86,76,60,30.11,29.66,9,3,21,0.01
2013-4-15,41.2,36.2,32.5,32.2,26.5,22.5,86,68,58,30.13,29.68,8,4,19,0.04
2013-4-16,49.8,38.9,33.3,27.9,24.7,21.2,69,57,38,30.48,30.11,5,2,11,0.00
2013-4-17,41.9,36.8,33.6,32.4,26.7,22.1,85,67,58,30.48,30.05,4,2,11,0.06
2013-4-18,34.3,32.3,30.9,30.0,28.4,27.2,87,85,81,30.10,29.67,3,0,8,0.12
2013-4-19,42.8,33.5,28.2,29.2,23.2,9.0,87,68,43,30.14,29.64,8,2,18,0.08
2013-4-20,48.6,34.2,18.1,14.1,8.8,4.1,61,37,21,30.38,29.46,3,1,7,0.00
2013-4-21,48.4,39.9,32.0,44.2,31.8,13.3,91,74,42,30.02,29.72,7,3,19,0.15
2013-4-22,47.5,37.9,32.0,35.8,30.1,26.4,89,75,49,29.93,29.83,4,1,11,0.02
2013-4-23,46.8,37.2,28.4,36.4,23.5,11.3,88,61,26,29.87,29.77,4,1,10,0.02
2013-4-24,54.9,38.5,25.5,34.4,24.2,15.6,80,59,25,29.78,29.62,9,2,19,0.00
2013-4-25,56.3,42.6,31.3,30.0,25.4,17.4,80,54,25,29.92,29.69,5,2,12,0.00
2013-4-26,75.6,59.4,45.5,44.6,36.9,26.4,65,45,25,29.85,29.68,6,2,16,0.00
2013-4-27,80.4,62.0,39.6,48.9,37.3,28.5,83,46,16,29.85,29.61,5,1,9,0.00
2013-4-28,83.7,66.6,53.2,53.9,48.1,44.5,93,55,28,29.62,29.36,4,2,11,0.07
2013-4-29,76.8,63.5,47.5,57.9,45.9,34.5,97,57,28,29.55,29.28,4,1,13,0.00
2013-4-30,72.3,65.1,56.5,60.3,46.2,26.2,82,54,22,29.67,29.13,7,3,15,0.00
2013-5-1,56.5,41.7,33.4,39.7,34.4,29.3,100,77,47,30.19,29.68,5,2,11,0.25
2013-5-2,51.4,40.7,35.6,30.8,27.8,24.9,72,61,41,30.25,30.13,4,2,12,0.00
2013-5-3,37.0,34.1,31.8,34.0,29.1,23.6,93,82,61,30.13,29.87,3,2,10,0.14
2013-5-4,48.4,38.2,0.0,99.9,37.4,30.9,100,89,10,29.90,29.83,3,1,7,0.04
2013-5-5,70.5,50.7,37.2,50.3,42.5,34.8,96,76,47,29.90,29.80,3,1,8,0.00
2013-5-6,78.6,61.2,43.0,51.3,45.7,41.6,95,61,33,29.84,29.74,4,1,8,0.00
2013-5-7,83.8,67.2,49.5,53.0,46.3,36.4,90,53,21,29.78,29.68,3,1,10,0.00
2013-5-8,80.1,65.6,56.3,58.6,52.5,42.0,100,66,27,29.74,29.68,6,1,9,0.17
2013-5-9,58.3,52.3,41.9,57.6,47.9,30.8,100,85,63,29.83,29.67,4,2,9,0.04
2013-5-10,70.5,53.1,34.3,44.7,28.0,18.5,76,44,14,29.84,29.58,4,1,8,0.01
2013-5-11,57.6,47.1,39.9,42.0,27.1,16.8,67,47,26,29.89,29.58,8,4,21,0.00
2013-5-12,63.9,47.2,34.0,27.4,21.1,14.0,61,39,18,29.93,29.80,6,2,14,0.00
2013-5-13,73.6,55.3,35.4,48.9,35.3,22.4,82,50,23,29.83,29.36,6,2,15,0.01
2013-5-14,97.7,73.7,50.2,57.1,46.8,26.1,90,45,12,29.43,29.19,8,2,23,0.00
2013-5-15,83.7,68.6,52.2,51.1,46.8,41.2,77,48,25,29.65,29.41,6,2,13,0.00
2013-5-16,84.9,71.0,53.4,54.1,43.3,23.1,83,42,18,29.65,29.55,5,2,10,0.00
2013-5-17,67.8,59.1,54.7,56.4,50.5,27.6,97,78,22,29.73,29.62,5,3,12,0.08
2013-5-18,83.3,65.5,54.3,66.9,59.7,53.5,100,84,54,29.71,29.52,4,2,9,0.43
2013-5-19,86.5,69.6,62.6,67.3,64.5,61.8,100,85,48,29.54,29.30,5,1,15,0.80
2013-5-20,75.6,67.1,60.8,65.5,60.9,56.4,100,82,57,29.31,29.23,4,1,10,0.32
2013-5-21,60.6,53.6,46.0,60.5,53.2,45.2,100,98,93,29.44,29.25,2,1,5,0.04
2013-5-22,53.2,48.8,44.1,49.8,46.8,43.8,100,93,79,29.72,29.42,3,2,8,0.02
2013-5-23,69.3,54.7,43.0,44.9,35.3,23.7,88,53,22,30.06,29.72,3,2,11,0.00
2013-5-24,71.4,56.5,38.1,54.4,39.1,29.9,97,55,32,30.11,29.91,4,1,11,0.20
2013-5-25,65.3,58.2,52.3,54.0,49.4,44.8,100,74,50,29.99,29.93,5,2,16,0.04
2013-5-26,59.5,57.0,52.3,48.7,43.7,37.1,76,62,44,29.95,29.76,6,2,14,0.00
2013-5-27,61.3,57.8,54.7,55.6,51.5,47.4,100,80,68,29.77,29.57,4,2,11,0.00
2013-5-28,60.6,56.9,53.4,57.2,54.8,52.1,97,93,87,29.57,29.44,3,1,11,0.00
2013-5-29,77.5,66.8,55.9,70.1,61.9,55.1,100,85,64,29.56,29.37,4,2,11,0.20
2013-5-30,82.0,69.6,63.7,68.2,63.9,60.9,100,83,52,29.41,29.25,4,2,11,0.13
2013-5-31,83.1,67.5,0.0,99.9,63.0,53.6,100,75,10,30.30,29.25,3,1,8,0.21
2013-6-1,74.3,61.4,51.3,62.2,54.2,43.4,93,78,53,30.30,29.91,3,1,9,0.07
2013-6-2,72.5,58.3,48.4,45.8,42.4,39.2,80,58,32,30.44,30.29,3,1,8,0.00
2013-6-3,74.8,61.1,46.4,53.8,45.4,39.4,96,60,31,30.42,30.31,2,1,8,0.00
2013-6-4,64.6,59.3,53.8,55.3,50.0,42.4,97,72,54,30.44,30.34,4,2,11,0.02
2013-6-5,58.1,55.5,53.2,58.1,54.6,52.2,100,97,91,30.40,30.30,2,1,8,0.05
2013-6-6,57.2,52.9,49.3,53.5,51.5,49.0,100,95,85,30.39,30.31,2,0,4,0.01
2013-6-7,64.8,57.9,52.2,56.8,52.8,51.5,100,84,66,30.40,30.27,1,0,4,0.00
2013-6-8,76.8,64.7,53.8,59.6,54.6,52.1,96,72,49,30.28,30.25,3,1,8,0.00
2013-6-9,67.6,59.7,56.1,64.1,57.5,53.4,100,92,71,30.26,30.14,5,2,15,0.51
2013-6-10,82.8,66.0,57.9,65.1,61.1,57.7,100,86,50,30.22,30.16,2,0,5,0.00
2013-6-11,77.7,67.3,55.9,68.4,63.7,55.7,100,89,68,30.25,30.17,2,0,6,0.00
2013-6-12,79.0,65.8,59.4,68.9,60.8,53.7,100,85,56,30.29,30.08,5,1,10,0.59
2013-6-13,83.8,69.7,55.9,59.6,54.6,50.2,85,60,41,30.45,30.29,2,1,7,0.00
2013-6-14,80.1,70.0,57.7,61.7,57.8,51.4,85,66,52,30.46,30.24,4,1,12,0.00
2013-6-15,82.8,70.1,62.6,71.9,65.1,60.8,100,85,67,30.30,30.20,2,0,7,0.44
2013-6-16,88.3,72.1,55.6,61.6,54.9,46.1,100,62,24,30.27,30.21,9,1,21,0.00
2013-6-17,86.5,72.5,59.5,62.8,58.7,54.1,93,64,35,30.31,29.77,4,1,9,0.00
2013-6-18,79.9,67.9,57.2,62.8,55.6,50.4,83,66,48,29.98,29.79,3,1,8,0.44
2013-6-19,89.1,70.9,59.0,63.8,58.5,53.7,86,67,40,29.94,29.85,2,1,7,0.00
2013-6-20,90.0,80.5,68.5,73.2,65.0,60.5,83,61,43,29.90,29.77,2,0,9,0.02
2013-6-21,82.6,72.6,63.9,69.3,66.1,60.9,100,82,59,30.00,29.63,20,2,98,1.20
2013-6-22,85.8,71.4,65.3,73.3,67.9,65.0,100,90,61,29.88,29.73,4,1,10,0.40
2013-6-23,85.8,75.0,68.2,71.3,67.8,63.3,100,80,53,29.76,29.57,4,1,9,0.33
2013-6-24,93.6,74.6,63.5,73.9,67.6,62.7,100,81,44,29.80,29.69,2,0,8,0.04
2013-6-25,88.2,76.7,64.6,73.3,68.4,63.1,97,77,54,29.73,29.61,3,1,9,0.00
2013-6-26,92.3,80.1,69.8,81.3,71.5,65.1,100,77,46,29.72,29.56,4,1,14,0.20
2013-6-27,89.1,78.8,68.9,68.7,62.1,55.7,90,60,34,29.73,29.67,5,2,14,0.00
2013-6-28,80.8,71.2,64.6,68.0,61.5,58.1,95,72,55,29.69,29.64,4,2,11,0.02
2013-6-29,80.1,69.2,61.5,68.6,59.1,51.5,100,73,42,29.88,29.63,3,1,7,0.46
2013-6-30,88.5,71.1,55.6,60.8,55.1,50.4,92,61,32,30.01,29.88,2,0,7,0.00
2013-7-1,88.7,74.3,59.4,66.2,58.7,54.4,95,62,33,30.09,30.00,2,0,4,0.00
2013-7-2,90.0,72.8,57.2,61.0,56.1,49.7,88,59,32,30.05,29.95,2,0,4,0.00
2013-7-3,91.2,73.9,58.3,64.4,55.5,49.7,96,58,27,29.97,29.85,3,0,8,0.00
2013-7-4,95.4,78.8,63.3,63.8,58.9,55.0,81,53,30,29.87,29.76,2,0,8,0.00
2013-7-5,92.3,81.1,72.1,65.6,61.8,57.6,65,52,38,29.80,29.71,2,1,7,0.00
2013-7-6,90.1,81.4,73.9,69.9,64.9,62.1,68,58,46,29.78,29.70,2,0,6,0.00
2013-7-7,93.6,81.6,68.9,72.8,68.6,63.6,99,66,47,29.79,29.72,4,0,7,0.11
2013-7-8,91.8,73.2,61.9,73.8,67.7,61.8,100,85,48,29.90,29.79,1,0,4,0.00
2013-7-9,88.3,77.0,0.0,99.9,70.2,64.9,100,79,10,29.86,29.64,5,2,18,0.33
2013-7-10,86.9,72.9,61.3,64.9,58.3,53.9,85,62,37,29.95,29.82,3,1,9,0.00
2013-7-11,91.0,76.1,59.5,69.7,59.3,55.2,96,60,32,30.00,29.88,2,0,8,0.00
2013-7-12,93.2,80.5,68.9,66.1,61.3,57.3,73,53,40,29.92,29.80,2,1,11,0.00
2013-7-13,79.0,75.0,68.4,75.0,67.3,58.7,100,78,56,29.97,29.82,2,0,7,0.08
2013-7-14,91.6,76.9,68.7,70.1,65.8,61.8,90,70,45,30.08,29.94,2,0,5,0.04
2013-7-15,95.7,80.9,68.5,72.5,67.6,64.7,93,67,42,30.17,30.06,3,0,8,0.00
2013-7-16,98.2,84.8,75.9,76.5,71.5,68.4,88,66,43,30.16,29.86,3,1,10,0.00
2013-7-17,96.6,84.6,74.3,73.7,70.8,67.6,89,65,44,30.00,29.79,4,1,11,0.00
2013-7-18,98.2,86.5,77.2,74.6,71.6,69.6,83,63,43,29.80,29.45,6,1,14,0.00
2013-7-19,87.8,81.0,72.3,72.4,65.5,58.8,83,60,43,29.62,29.41,4,2,11,0.01
2013-7-20,81.5,72.3,64.0,67.0,61.4,56.5,94,70,45,29.67,29.54,2,0,8,0.00
2013-7-21,81.7,69.3,57.2,69.7,61.2,48.6,97,76,59,29.65,29.48,4,1,8,0.17
2013-7-22,90.0,75.5,66.9,73.5,65.3,57.3,94,73,45,29.53,29.36,4,1,9,0.00
2013-7-23,82.8,69.3,59.2,59.6,55.3,51.9,88,63,41,29.73,29.53,2,0,6,0.00
2013-7-24,86.4,68.2,59.2,61.2,56.6,52.7,83,68,39,29.75,29.64,2,0,5,0.00
2013-7-25,84.6,73.1,62.4,67.6,61.9,58.2,92,69,46,29.65,29.59,3,1,8,0.01
2013-7-26,73.2,64.8,56.1,64.2,56.2,48.2,87,74,58,29.75,29.57,4,1,14,0.04
2013-7-27,65.3,56.1,52.2,54.1,49.8,46.7,91,80,56,29.75,29.60,3,1,10,0.08
2013-7-28,79.9,61.0,50.2,56.5,51.6,46.3,91,73,44,29.73,29.62,2,0,7,0.00
2013-7-29,82.6,67.8,52.5,64.2,55.5,52.5,100,68,41,29.82,29.72,3,0,6,0.01
2013-7-30,71.1,65.9,61.3,66.4,63.2,58.8,100,91,79,29.78,29.72,2,0,4,0.18
2013-7-31,82.8,69.6,60.8,68.3,59.9,50.8,100,75,36,29.75,29.67,4,1,13,0.00
2013-8-1,86.7,69.9,54.1,61.1,55.6,51.8,94,63,37,29.73,29.54,3,0,115,0.00
2013-8-2,82.6,69.5,58.5,61.3,55.8,48.7,91,64,37,29.72,29.51,2,0,5,0.00
2013-8-3,83.3,66.9,53.1,61.9,53.2,49.5,95,65,35,29.87,29.71,2,0,6,0.00
2013-8-4,82.6,66.1,52.7,60.7,54.1,50.1,93,68,40,29.90,29.67,3,0,8,0.00
2013-8-5,85.6,68.6,60.8,70.3,62.7,56.7,97,82,56,29.69,29.46,2,0,8,0.35
2013-8-6,88.5,69.3,57.4,68.6,62.0,56.5,100,80,50,29.52,29.36,6,1,19,0.04
2013-8-7,82.8,67.5,59.5,61.8,56.3,48.7,100,71,33,29.71,29.46,2,0,8,0.00
2013-8-8,81.9,66.8,56.5,62.0,57.4,52.9,96,74,43,29.74,29.65,4,0,8,0.01
2013-8-9,79.9,70.1,57.9,65.2,55.1,50.8,100,62,38,29.80,29.66,3,1,10,0.00
2013-8-10,79.5,67.4,56.1,60.8,55.1,52.4,90,66,46,29.87,29.75,2,0,4,0.00
2013-8-11,84.9,69.4,61.3,66.9,62.2,55.4,97,79,51,29.92,29.71,1,0,4,0.04
2013-8-12,83.5,70.8,59.9,64.5,58.3,53.6,95,67,38,29.95,29.85,3,0,8,0.00
2013-8-13,83.8,66.0,54.1,59.6,52.1,42.7,97,66,26,30.00,29.74,2,0,6,0.05
2013-8-14,82.4,65.0,53.1,64.1,53.7,49.5,97,71,39,29.98,29.77,4,0,8,0.39
2013-8-15,78.6,55.1,0.0,99.9,66.7,52.8,79,51,10,29.92,29.87,3,0,8,0.00
2013-8-16,84.4,71.1,0.0,63.6,57.5,53.6,88,63,41,30.00,29.91,3,0,9,0.00
2013-8-17,88.2,71.3,56.8,67.9,56.8,52.8,100,65,33,30.00,29.91,2,0,9,0.00
2013-8-18,83.1,70.7,61.2,63.0,55.5,46.2,85,61,39,29.93,29.80,3,0,11,0.00
2013-8-19,91.6,77.4,68.5,69.3,64.8,58.5,77,66,47,29.83,29.70,1,0,7,0.00
2013-8-20,93.9,81.5,71.6,74.1,70.4,66.2,84,70,50,29.73,29.67,2,0,8,0.00
2013-8-21,91.2,80.2,72.5,77.1,71.8,62.6,91,76,57,29.81,29.64,3,0,6,0.00
2013-8-22,90.7,75.0,65.3,62.8,54.8,48.3,76,52,28,29.94,29.81,2,1,6,0.00
2013-8-23,90.3,75.1,59.5,68.3,59.4,49.8,78,59,38,29.94,29.84,3,1,8,0.00
2013-8-24,93.0,82.0,71.2,72.6,70.0,65.5,83,68,50,29.87,29.74,2,1,11,0.00
2013-8-25,99.3,86.7,78.4,76.5,73.4,71.0,80,66,44,29.82,29.75,2,1,11,0.00
2013-8-26,99.3,87.4,78.8,76.6,75.1,73.0,86,68,45,29.80,29.66,2,1,9,0.00
2013-8-27,91.9,84.4,75.4,79.1,75.6,72.0,89,75,63,29.73,29.60,2,0,5,0.01
2013-8-28,90.7,78.9,68.5,75.5,69.9,64.7,100,77,43,29.86,29.73,2,0,8,0.00
2013-8-29,97.3,81.6,72.3,78.3,72.9,66.3,100,77,43,29.80,29.65,2,1,6,0.06
2013-8-30,87.1,77.1,69.8,73.4,68.0,63.7,92,74,50,29.75,29.62,3,1,6,0.00
2013-8-31,93.6,74.8,63.1,71.5,66.2,61.9,100,77,44,29.70,29.51,4,1,11,0.09
2013-9-1,74.1,68.5,60.6,66.4,60.6,53.9,92,76,63,29.77,29.50,2,1,8,0.00
2013-9-2,76.5,59.9,53.8,56.6,52.9,50.7,95,79,48,29.88,29.77,1,0,5,0.00
2013-9-3,84.0,63.9,49.5,61.0,55.5,49.2,100,77,44,29.88,29.79,3,0,8,0.00
2013-9-4,88.2,71.1,59.5,67.1,62.1,58.1,100,75,46,29.95,29.79,2,0,5,0.00
2013-9-5,85.8,71.5,59.2,65.9,60.0,52.7,84,68,46,30.05,29.90,3,1,9,0.00
2013-9-6,95.0,79.9,69.4,73.3,67.1,62.7,95,68,36,29.90,29.68,2,0,8,0.00
2013-9-7,94.1,80.5,69.8,72.5,68.1,61.1,91,67,43,29.83,29.66,3,1,8,0.00
2013-9-8,74.5,68.0,63.3,66.2,59.9,53.1,85,75,65,29.85,29.68,3,1,11,0.00
2013-9-9,95.0,77.7,69.1,75.0,70.1,65.3,100,80,46,29.69,29.44,3,1,10,0.00
2013-9-10,84.6,73.8,66.9,73.5,65.8,58.1,95,77,45,29.79,29.56,4,1,11,0.00
2013-9-11,86.4,73.4,62.6,67.6,58.3,50.2,96,63,29,29.86,29.78,3,1,10,0.00
2013-9-12,74.8,64.4,54.1,57.2,50.5,44.5,92,63,37,30.02,29.85,2,0,7,0.00
2013-9-13,74.8,58.7,45.1,58.8,46.5,42.4,99,67,35,30.09,29.86,4,0,7,0.00
2013-9-14,73.0,59.5,49.6,58.9,50.7,45.5,100,76,44,29.87,29.68,3,0,8,0.00
2013-9-15,65.3,57.8,48.2,59.8,54.7,45.4,99,90,67,30.10,29.67,3,1,8,0.00
2013-9-16,72.5,53.6,39.9,49.7,42.0,33.3,100,70,27,30.22,30.03,3,1,8,0.00
2013-9-17,69.3,57.7,48.0,58.6,51.5,43.8,100,81,62,30.03,29.73,3,1,8,0.00
2013-9-18,72.5,66.4,58.8,69.8,65.3,58.6,100,96,87,29.73,29.49,2,1,8,0.00
2013-9-19,77.2,70.2,63.9,74.6,67.6,59.9,100,92,74,29.59,29.43,7,1,21,0.00
2013-9-20,66.2,58.7,50.5,59.9,53.1,47.8,95,83,57,29.71,29.56,3,2,10,0.00
2013-9-21,69.6,53.7,46.9,51.4,48.0,46.3,100,83,52,29.77,29.69,2,1,7,0.00
2013-9-22,72.9,58.5,46.0,57.0,51.3,45.2,100,79,53,29.76,29.65,4,2,10,0.00
2013-9-23,74.7,63.3,54.3,56.0,53.0,49.9,86,70,49,29.75,29.67,3,1,11,0.00
2013-9-24,77.4,62.9,52.9,57.1,53.4,50.4,93,73,45,29.77,29.70,3,1,9,0.00
2013-9-25,75.6,61.9,50.9,58.2,53.7,50.6,100,77,49,29.78,29.67,3,1,8,0.00
2013-9-26,81.3,71.1,57.0,63.2,59.0,52.6,86,66,51,29.73,29.63,4,2,11,0.00
2013-9-27,84.6,73.5,66.2,66.7,62.5,60.5,83,70,48,29.70,29.59,3,1,11,0.00
2013-9-28,73.2,61.5,47.8,65.0,55.8,46.8,100,82,65,29.72,29.42,6,2,16,0.00
2013-9-29,79.2,60.7,46.4,51.1,46.9,43.9,100,65,30,29.74,29.58,2,0,6,0.00
2013-9-30,81.3,68.5,59.7,55.3,51.3,47.2,68,55,39,29.58,29.40,2,1,11,0.00
2013-10-1,75.7,66.6,51.4,55.0,45.2,29.6,73,50,20,29.77,29.38,5,2,14,0.00
2013-10-2,75.0,58.8,44.6,57.0,46.3,38.3,100,69,27,29.83,29.62,5,1,14,0.00
2013-10-3,58.8,56.3,54.1,58.6,55.9,53.3,99,98,97,29.73,29.62,2,1,5,0.00
2013-10-4,59.0,56.2,53.8,56.8,54.8,53.0,99,95,87,29.78,29.64,4,2,14,0.00
2013-10-5,59.4,54.8,43.9,58.9,53.7,43.8,100,96,86,29.69,29.51,7,1,17,0.00
2013-10-6,53.1,46.8,41.9,53.1,46.5,41.6,100,99,96,29.62,29.46,2,0,4,0.00
2013-10-7,68.5,51.7,41.9,51.2,45.0,39.6,100,82,38,29.76,29.60,2,0,7,0.00
2013-10-8,78.3,62.7,49.1,50.8,47.2,44.5,89,60,34,29.75,29.61,2,1,11,0.00
2013-10-9,79.0,66.0,58.3,55.4,51.3,48.6,76,60,42,29.83,29.70,2,1,8,0.00
2013-10-10,79.5,63.4,52.3,56.3,51.0,47.1,83,66,37,29.83,29.67,3,1,13,0.00
2013-10-11,74.3,66.3,57.9,62.0,55.7,52.3,90,70,53,29.67,29.42,6,2,21,0.00
2013-10-12,61.7,51.1,44.2,58.4,45.2,41.1,93,80,62,29.94,29.48,6,2,17,0.00
2013-10-13,61.0,47.3,36.0,42.9,38.7,34.4,99,75,39,30.21,29.94,2,0,6,0.00
2013-10-14,54.5,47.4,39.0,48.6,41.4,38.8,100,81,56,30.18,29.76,4,2,13,0.00
2013-10-15,53.2,49.5,45.5,53.2,49.2,44.7,100,99,97,29.76,29.46,6,1,15,0.00
2013-10-16,54.5,45.5,37.6,44.7,41.1,36.5,100,86,54,29.73,29.60,2,0,8,0.00
2013-10-17,57.7,46.3,37.6,47.6,41.8,37.3,100,86,55,29.65,29.55,2,0,7,0.00
2013-10-18,52.9,43.6,37.0,42.8,36.2,29.4,100,78,42,29.75,29.62,4,1,9,0.00
2013-10-19,45.0,39.6,32.7,43.2,37.0,30.9,100,90,81,29.61,29.46,3,1,9,0.00
2013-10-20,42.3,36.1,30.9,41.2,35.2,30.4,100,97,90,29.64,29.39,2,1,8,0.00
2013-10-21,38.7,34.5,29.1,33.7,23.9,20.1,87,66,51,29.72,29.64,5,2,13,0.00
2013-10-22,40.6,33.3,25.0,33.2,28.6,21.7,95,83,68,29.80,29.72,2,0,4,0.00
2013-10-23,38.3,34.4,32.2,32.6,25.5,18.6,94,71,52,29.87,29.76,2,1,8,0.00
2013-10-24,41.9,37.0,32.7,32.7,27.2,20.1,81,68,55,30.07,29.87,3,1,11,0.00
2013-10-25,57.7,44.6,29.8,43.8,34.9,27.0,91,70,53,30.08,29.55,4,1,14,0.00
2013-10-26,51.3,42.5,35.8,42.7,30.8,27.8,75,63,53,29.88,29.56,3,2,10,0.00
2013-10-27,55.8,42.4,31.3,36.4,30.6,26.0,84,64,44,29.91,29.60,4,1,11,0.00
2013-10-28,42.8,35.7,29.1,30.6,23.6,17.3,81,63,40,30.22,29.91,4,1,11,0.00
2013-10-29,39.6,35.7,28.9,36.4,28.5,22.1,96,75,64,30.18,29.86,3,1,8,0.00
2013-10-30,49.3,44.0,37.4,49.0,43.7,36.4,100,99,96,29.86,29.45,3,0,8,0.00
2013-10-31,49.6,43.0,39.4,49.4,42.3,38.8,100,98,92,29.45,29.18,4,2,11,0.00
2013-11-1,51.1,42.5,36.5,40.6,36.9,29.5,100,82,58,29.63,29.18,3,1,8,0.00
2013-11-2,48.6,38.9,32.2,36.3,30.5,27.6,86,73,48,29.88,29.62,3,1,7,0.00
2013-11-3,54.5,44.5,33.8,35.8,32.1,28.0,85,63,43,29.88,29.66,12,2,24,0.00
2013-11-4,48.7,44.2,33.3,45.0,36.9,30.5,95,76,57,29.91,29.60,4,1,13,0.00
2013-11-5,46.0,35.4,28.6,34.5,28.9,22.6,93,79,40,30.02,29.79,1,0,4,0.00
2013-11-6,37.4,33.0,29.8,30.9,26.6,22.6,94,78,58,29.92,29.79,3,0,9,0.00
2013-11-7,36.5,29.6,23.5,28.8,24.4,19.5,88,81,69,30.00,29.92,4,0,9,0.00
2013-11-8,44.8,35.0,23.0,38.3,26.5,19.2,91,72,53,29.95,29.36,7,2,17,0.00
2013-11-9,43.5,40.7,36.5,38.4,32.0,25.4,85,71,58,29.96,29.39,7,4,19,0.00
2013-11-10,43.2,38.5,33.8,30.7,28.4,24.7,76,67,55,30.11,29.86,5,2,11,0.00
2013-11-11,37.2,24.1,14.5,29.2,8.8,2.3,74,52,36,30.47,29.89,4,2,9,0.00
2013-11-12,29.1,19.8,11.3,10.3,4.4,-1.4,66,52,28,30.56,30.19,4,1,9,0.00
2013-11-13,50.7,37.1,22.5,33.3,22.2,9.1,68,55,40,30.19,29.63,3,1,8,0.00
2013-11-14,53.4,41.1,33.3,37.3,31.8,27.5,83,70,52,29.63,29.52,2,0,7,0.00
2013-11-15,58.1,43.0,30.2,40.5,34.0,27.1,92,72,44,29.67,29.40,2,0,8,0.00
2013-11-16,48.6,44.7,41.7,48.4,41.6,34.2,100,89,69,29.41,29.01,4,1,11,0.00
2013-11-17,44.4,39.6,32.2,43.7,35.3,22.8,100,85,68,29.58,29.07,6,3,16,0.00
2013-11-18,34.7,28.9,22.3,22.8,18.2,14.1,77,64,50,30.01,29.57,6,2,14,0.00
2013-11-19,45.5,34.9,20.7,29.3,22.9,15.1,82,62,46,30.02,29.68,6,3,21,0.00
2013-11-20,44.2,41.4,36.9,33.1,28.7,23.8,86,62,46,29.80,29.65,4,2,13,0.00
2013-11-21,37.8,31.1,24.3,36.7,25.0,11.4,96,78,57,30.26,29.80,4,2,11,0.00
2013-11-22,34.0,22.8,12.7,12.3,5.2,-3.2,67,49,23,30.38,30.20,6,3,14,0.00
2013-11-23,18.5,11.2,6.3,-0.6,-6.0,-13.7,63,47,25,30.61,30.37,5,2,12,0.00
2013-11-24,32.0,20.1,6.1,11.8,3.4,-5.7,64,49,32,30.44,29.72,4,2,13,0.00
2013-11-25,38.7,33.3,27.7,26.9,20.8,11.8,85,60,51,29.93,29.64,6,3,17,0.00
2013-11-26,29.3,19.9,12.2,16.4,1.2,-6.5,59,44,31,30.25,29.91,7,4,16,0.00
2013-11-27,24.1,17.0,6.1,5.3,2.0,-3.2,69,52,41,30.27,29.93,4,1,11,0.00
2013-11-28,28.2,21.0,9.9,9.9,6.0,-0.1,66,52,43,30.38,29.90,4,1,10,0.00
2013-11-29,32.2,22.7,8.2,19.0,10.8,-1.0,74,60,45,30.39,29.99,5,2,15,0.00
2013-11-30,40.5,31.2,21.0,26.0,20.8,15.0,82,65,55,30.04,29.63,2,1,5,0.00
2013-12-1,36.7,26.4,16.5,23.5,18.0,10.6,81,71,54,30.10,29.74,2,0,7,0.00
2013-12-2,39.0,32.6,26.4,32.4,27.5,19.8,92,81,68,29.79,29.38,5,2,13,0.00
2013-12-3,34.7,33.7,31.3,32.5,31.5,28.7,93,91,87,29.64,29.42,5,2,14,0.00
2013-12-4,31.3,27.2,13.8,28.7,23.6,5.1,91,86,67,29.63,29.28,0,0,0,0.00
2013-12-5,13.8,5.7,-1.5,5.3,-6.5,-13.8,69,56,47,30.24,29.57,0,0,0,0.00
2013-12-6,4.5,-2.6,-8.7,-10.9,-15.5,-22.5,60,53,46,30.58,30.06,0,0,0,0.00
2013-12-7,3.4,-5.8,-11.9,-14.9,-20.1,-23.7,58,49,34,30.64,30.26,0,0,0,0.00
2013-12-8,12.6,5.5,-5.3,2.6,-4.5,-16.4,69,62,56,30.50,29.91,0,0,0,0.00
2013-12-9,9.9,0.8,-4.0,2.1,-11.4,-18.3,70,56,42,30.00,29.73,0,0,0,0.00
2013-12-10,29.5,4.7,-0.8,-2.2,-7.2,-12.3,68,57,44,30.33,29.67,0,0,8,0.00
2013-12-11,2.1,-3.6,-9.4,-10.7,-19.1,-24.3,54,46,35,30.58,30.32,0,0,0,0.00
2013-12-12,20.7,11.1,0.5,5.6,-1.4,-13.6,64,57,44,30.35,30.10,0,0,3,0.00
2013-12-13,17.1,13.1,9.9,6.0,1.7,-0.5,66,60,52,30.31,30.15,3,2,9,0.00
2013-12-14,17.6,9.3,-0.9,4.5,-1.6,-13.4,67,60,53,30.30,30.02,4,1,8,0.00
2013-12-15,6.3,-0.2,-2.0,-13.4,-17.8,-23.6,54,42,30,30.22,29.95,3,1,7,0.00
2013-12-16,20.3,8.8,-0.9,15.3,-2.7,-20.3,81,60,38,30.17,29.92,4,1,8,0.00
2013-12-17,32.0,22.3,5.2,25.6,11.7,-4.6,82,64,48,30.14,29.81,6,3,14,0.00
2013-12-18,36.3,23.2,5.4,22.4,13.2,-4.1,77,66,50,30.10,29.51,6,2,14,0.00
2013-12-19,25.7,17.6,15.3,17.6,6.7,1.9,73,62,51,30.06,29.81,3,2,9,0.00
2013-12-20,20.8,15.7,11.5,8.6,6.4,4.1,73,66,56,30.03,29.86,2,0,5,0.00
2013-12-21,23.4,18.2,12.6,11.5,8.4,3.8,70,65,57,30.02,29.85,2,1,6,0.00
2013-12-22,21.6,14.7,7.5,12.5,5.8,-2.0,74,67,61,30.24,29.95,4,2,8,0.00
2013-12-23,7.5,0.1,-7.1,-2.0,-12.3,-20.0,66,55,48,30.55,30.24,3,2,9,0.00
2013-12-24,10.6,0.1,-12.8,-0.2,-13.6,-25.3,67,52,33,30.55,30.16,5,2,11,0.00
2013-12-25,25.0,15.7,9.1,17.4,6.6,-0.8,75,67,53,30.17,30.04,3,1,9,0.00
2013-12-26,27.3,19.6,12.6,16.9,10.8,4.1,75,68,62,30.19,30.06,2,0,4,0.00
2013-12-27,42.1,28.1,9.9,29.3,21.0,2.1,87,75,57,30.19,29.75,5,1,11,0.00
2013-12-28,51.3,31.1,18.5,31.0,24.0,10.1,89,76,44,30.03,29.58,8,1,14,0.00
2013-12-29,18.5,-0.8,-13.2,9.6,-19.1,-31.0,68,42,24,30.38,30.02,6,3,15,0.00
2013-12-30,1.4,-5.3,-13.9,-11.3,-18.8,-28.9,58,51,43,30.38,30.19,3,1,6,0.00
2013-12-31,-0.9,-7.8,-12.6,-16.4,-21.6,-26.8,60,49,39,30.49,30.25,2,1,5,0.00
2014-1-1,1.2,-4.2,-9.9,-16.8,-20.8,-25.7,47,43,41,30.55,30.45,2,1,6,0.00
2014-1-2,6.4,-5.3,-13.2,-17.9,-24.5,-29.5,49,38,23,30.60,30.33,2,1,5,0.00